Location: Barrio de Buenos Aires
(28.4500°N, 16.2667°W)
Time: 04:44:04
(UTC+00:00)

Mugunghwa Rocket - Pass Details

Date: 24 January 2020
Orbit: 936 x 1372 km, 26.7° (Epoch: 19 February)

Event Time Altitude Azimuth Distance (km) Brightness Sun altitude
Rises 20:00:38 0° 268° (W) 3,628 8.6 -18.3°
Reaches altitude 10° 20:03:11 10° 267° (W) 2,716 7.6 -18.8°
Maximum altitude 20:09:46 78° 182° (S) 1,059 4.1 -20.2°
Enters shadow 20:13:12 33° 101° (E) 1,717 4.8 -21.0°
